TimeCDT,TemperatureF,Dew PointF,Humidity,Sea Level PressureIn,VisibilityMPH,Wind Direction,Wind SpeedMPH,Gust SpeedMPH,PrecipitationIn,Events,Conditions,WindDirDegrees,DateUTC
12:12 AM,66.2,64.4,94,30.21,10.0,Calm,Calm,-,N/A,,Scattered Clouds,0,2013-07-15 05:12:00
12:32 AM,68.0,64.4,88,30.21,10.0,Calm,Calm,-,N/A,,Scattered Clouds,0,2013-07-15 05:32:00
12:53 AM,68.0,62.6,83,30.21,10.0,Calm,Calm,-,N/A,,Clear,0,2013-07-15 05:53:00
1:12 AM,69.8,62.6,78,30.20,10.0,Calm,Calm,-,N/A,,Clear,0,2013-07-15 06:12:00
1:32 AM,68.0,62.6,83,30.21,10.0,Calm,Calm,-,N/A,,Clear,0,2013-07-15 06:32:00
1:53 AM,68.0,60.8,78,30.20,10.0,Calm,Calm,-,N/A,,Clear,0,2013-07-15 06:53:00
2:12 AM,68.0,60.8,78,30.20,10.0,Calm,Calm,-,N/A,,Clear,0,2013-07-15 07:12:00
2:33 AM,68.0,62.6,83,30.20,10.0,Calm,Calm,-,N/A,,Clear,0,2013-07-15 07:33:00
2:53 AM,68.0,62.6,83,30.21,10.0,Calm,Calm,-,N/A,,Clear,0,2013-07-15 07:53:00
3:12 AM,68.0,62.6,83,30.21,10.0,Calm,Calm,-,N/A,,Clear,0,2013-07-15 08:12:00
3:33 AM,68.0,62.6,83,30.21,10.0,Calm,Calm,-,N/A,,Clear,0,2013-07-15 08:33:00
3:53 AM,68.0,62.6,83,30.21,10.0,Calm,Calm,-,N/A,,Clear,0,2013-07-15 08:53:00
4:12 AM,68.0,62.6,83,30.21,10.0,Calm,Calm,-,N/A,,Clear,0,2013-07-15 09:12:00
4:33 AM,66.2,62.6,88,30.21,10.0,Calm,Calm,-,N/A,,Scattered Clouds,0,2013-07-15 09:33:00
4:53 AM,66.2,60.8,83,30.21,10.0,Calm,Calm,-,N/A,,Clear,0,2013-07-15 09:53:00
5:12 AM,66.2,60.8,83,30.21,10.0,Calm,Calm,-,N/A,,Clear,0,2013-07-15 10:12:00
5:32 AM,64.4,60.8,88,30.22,10.0,Calm,Calm,-,N/A,,Clear,0,2013-07-15 10:32:00
5:53 AM,64.4,60.8,88,30.22,10.0,Calm,Calm,-,N/A,,Clear,0,2013-07-15 10:53:00
6:12 AM,66.2,60.8,83,30.23,10.0,Calm,Calm,-,N/A,,Clear,0,2013-07-15 11:12:00
6:32 AM,66.2,60.8,83,30.23,10.0,Calm,Calm,-,N/A,,Clear,0,2013-07-15 11:32:00
6:52 AM,66.2,62.6,88,30.23,10.0,Calm,Calm,-,N/A,,Clear,0,2013-07-15 11:52:00
7:12 AM,68.0,62.6,83,30.23,10.0,Calm,Calm,-,N/A,,Clear,0,2013-07-15 12:12:00
7:33 AM,69.8,62.6,78,30.24,10.0,Calm,Calm,-,N/A,,Clear,0,2013-07-15 12:33:00
7:52 AM,71.6,62.6,73,30.24,10.0,Calm,Calm,-,N/A,,Clear,0,2013-07-15 12:52:00
8:12 AM,73.4,62.6,69,30.24,10.0,Calm,Calm,-,N/A,,Clear,0,2013-07-15 13:12:00
8:33 AM,75.2,62.6,65,30.24,10.0,South,6.9,-,N/A,,Clear,190,2013-07-15 13:33:00
8:52 AM,77.0,62.6,61,30.25,10.0,South,5.8,-,N/A,,Clear,190,2013-07-15 13:52:00
9:12 AM,78.8,62.6,57,30.25,10.0,South,5.8,-,N/A,,Clear,180,2013-07-15 14:12:00
9:33 AM,78.8,62.6,57,30.25,10.0,South,8.1,-,N/A,,Clear,190,2013-07-15 14:33:00
9:52 AM,80.6,62.6,54,30.25,10.0,South,6.9,-,N/A,,Clear,190,2013-07-15 14:52:00
10:12 AM,80.6,62.6,54,30.25,10.0,South,5.8,-,N/A,,Clear,190,2013-07-15 15:12:00
10:33 AM,82.4,64.4,54,30.25,10.0,South,5.8,-,N/A,,Clear,180,2013-07-15 15:33:00
10:52 AM,82.4,62.6,51,30.25,10.0,SSW,8.1,-,N/A,,Clear,200,2013-07-15 15:52:00
11:12 AM,82.4,60.8,48,30.25,10.0,South,4.6,-,N/A,,Clear,180,2013-07-15 16:12:00
11:33 AM,84.2,60.8,45,30.24,10.0,SSE,8.1,-,N/A,,Scattered Clouds,150,2013-07-15 16:33:00
11:52 AM,84.2,60.8,45,30.24,10.0,SSE,8.1,-,N/A,,Scattered Clouds,160,2013-07-15 16:52:00
12:12 PM,82.4,60.8,48,30.24,10.0,SSE,6.9,-,N/A,,Mostly Cloudy,150,2013-07-15 17:12:00
12:32 PM,84.2,60.8,45,30.24,10.0,SSE,8.1,-,N/A,,Scattered Clouds,150,2013-07-15 17:32:00
12:52 PM,84.2,59.0,42,30.24,10.0,SSE,9.2,-,N/A,,Scattered Clouds,160,2013-07-15 17:52:00
1:13 PM,84.2,59.0,42,30.23,10.0,SSE,9.2,-,N/A,,Clear,160,2013-07-15 18:13:00
1:32 PM,86.0,60.8,43,30.23,10.0,South,9.2,-,N/A,,Clear,170,2013-07-15 18:32:00
1:52 PM,84.2,60.8,45,30.23,10.0,SSE,6.9,16.1,N/A,,Clear,160,2013-07-15 18:52:00
2:13 PM,84.2,60.8,45,30.23,10.0,South,5.8,16.1,N/A,,Scattered Clouds,170,2013-07-15 19:13:00
2:32 PM,84.2,60.8,45,30.22,10.0,South,8.1,-,N/A,,Scattered Clouds,190,2013-07-15 19:32:00
2:52 PM,84.2,60.8,45,30.22,10.0,SSE,5.8,-,N/A,,Scattered Clouds,150,2013-07-15 19:52:00
3:13 PM,84.2,62.6,48,30.22,10.0,SSE,8.1,-,N/A,,Mostly Cloudy,160,2013-07-15 20:13:00
3:33 PM,86.0,60.8,43,30.21,10.0,SSE,10.4,-,N/A,,Scattered Clouds,160,2013-07-15 20:33:00
3:52 PM,86.0,60.8,43,30.21,10.0,SE,10.4,-,N/A,,Scattered Clouds,140,2013-07-15 20:52:00
4:13 PM,87.8,60.8,40,30.20,10.0,SSE,10.4,17.3,N/A,,Scattered Clouds,160,2013-07-15 21:13:00
4:33 PM,87.8,60.8,40,30.19,10.0,SSE,6.9,-,N/A,,Clear,150,2013-07-15 21:33:00
4:52 PM,86.0,60.8,43,30.19,10.0,Calm,Calm,-,N/A,,Clear,0,2013-07-15 21:52:00
5:12 PM,87.8,62.6,43,30.19,10.0,SSE,8.1,-,N/A,,Clear,160,2013-07-15 22:12:00
5:33 PM,87.8,60.8,40,30.19,10.0,South,10.4,-,N/A,,Scattered Clouds,170,2013-07-15 22:33:00
5:52 PM,84.2,62.6,48,30.18,10.0,SSE,9.2,-,N/A,,Scattered Clouds,160,2013-07-15 22:52:00
6:13 PM,84.2,62.6,48,30.17,10.0,Calm,Calm,-,N/A,,Clear,0,2013-07-15 23:13:00
6:33 PM,84.2,64.4,51,30.17,10.0,SSE,6.9,-,N/A,,Scattered Clouds,160,2013-07-15 23:33:00
6:52 PM,84.2,62.6,48,30.17,10.0,SSE,8.1,-,N/A,,Scattered Clouds,160,2013-07-15 23:52:00
7:12 PM,84.2,64.4,51,30.17,10.0,SSE,5.8,-,N/A,,Clear,150,2013-07-16 00:12:00
7:33 PM,84.2,66.2,55,30.17,10.0,SE,5.8,-,N/A,,Clear,130,2013-07-16 00:33:00
7:52 PM,82.4,66.2,58,30.17,10.0,ESE,3.5,-,N/A,,Scattered Clouds,120,2013-07-16 00:52:00
8:12 PM,82.4,66.2,58,30.17,10.0,ESE,6.9,-,N/A,,Scattered Clouds,110,2013-07-16 01:12:00
8:33 PM,80.6,66.2,61,30.17,10.0,East,6.9,-,N/A,,Clear,100,2013-07-16 01:33:00
8:52 PM,80.6,68.0,65,30.17,10.0,East,5.8,-,N/A,,Clear,100,2013-07-16 01:52:00
9:12 PM,78.8,68.0,69,30.17,10.0,East,5.8,-,N/A,,Clear,100,2013-07-16 02:12:00
9:33 PM,78.8,68.0,69,30.18,10.0,East,8.1,-,N/A,,Clear,100,2013-07-16 02:33:00
9:52 PM,78.8,69.8,74,30.18,10.0,ESE,6.9,-,N/A,,Scattered Clouds,110,2013-07-16 02:52:00
10:12 PM,77.0,69.8,78,30.18,10.0,East,5.8,-,N/A,,Scattered Clouds,100,2013-07-16 03:12:00
10:32 PM,75.2,69.8,83,30.18,10.0,ESE,4.6,-,N/A,,Clear,120,2013-07-16 03:32:00
10:52 PM,75.2,69.8,83,30.19,10.0,Calm,Calm,-,N/A,,Clear,0,2013-07-16 03:52:00
11:12 PM,75.2,69.8,83,30.19,10.0,ESE,3.5,-,N/A,,Clear,120,2013-07-16 04:12:00
11:32 PM,75.2,69.8,83,30.19,10.0,Calm,Calm,-,N/A,,Clear,0,2013-07-16 04:32:00
11:53 PM,75.2,68.0,78,30.19,10.0,Calm,Calm,-,N/A,,Clear,0,2013-07-16 04:53:00